FENGYUN 1C DEB

Satellite information

Favourite Embed

Satellite Type and Status

DEBRISIN ORBIT

Key statistics

Satellite FENGYUN 1C DEB at a glance.

Uptime

9609

Days in orbit

Revolutions

≈ 14.4

Per day

Orbit

SSO

Sun Synchronous Orbit

Inclination

99.2

Latest

Satellite identification and parameters

Extended collection of information and parameters for FENGYUN 1C DEB.

Object identification

Identified? True

Debris? True

Object name: FENGYUN 1C DEB

International designator: 1999-025BLX

Object number (NORAD): 31241

Object ID (CCSDS): 31241

Country: PEOPLES REPUBLIC OF CHINA (PRC)

Current information (Y/N): Y

RCS size: SMALL

Orbital parameters

Period: 100.129 minutes

Inclination: 99.2237 deg

SMA: 7142.771 km

Apoapsis: 813.237 km

Periapsis: 716.035 km

RAAN: 18.7716 deg

Eccentricy: 0.00680422

Argument of periapsis: 133.2407 deg

Mean anomaly: 227.4486 deg

Mean motion: 14.38144979 rev/day

Mean motion (dot): 0.0000202 rev/day2

B* drag term: 0.0006641933 1/REarth

Two-line elements (TLE)

Creation date: Aug. 28, 2025, 11:13 p.m.

Reference frame: TEME

Reference center: EARTH

Epoch: Aug. 27, 2025, 9:55 p.m. UTC

TLE line 0: 0 FENGYUN 1C DEB

TLE line 1: 1 31241U 99025BLX 25239.91377215 .00002020 00000-0 66419-3 0 9995

TLE line 2: 2 31241 99.2237 18.7716 0068042 133.2407 227.4486 14.38144979961554

Live tracking on map

Real-time ground track for satellite FENGYUN 1C DEB.

In-orbit conjunctions

A list of the most updated potential collisions computed for object FENGYUN 1C DEB.

Target Orbit TCA Probability of collision Miss distance Type
FENGYUN 1C DEB SSO 2025-08-25 13:58:58 0.0002339637 141.0 (m) DEBRIS
COSMOS 468 LEO 2025-06-16 17:46:34 0.0005409605 470.0 (m) PAYLOAD
CZ-6A DEB LEO 2025-01-20 22:19:02 0.0001054033 603.0 (m) DEBRIS
COSMOS 1867 COOLANT LEO 2024-05-29 20:44:13 0.0001276886 17.0 (m) DEBRIS

Associated space launch

Chinese polar orbiting meteorological satellite

FENGYUN 1C DEB was lifted into orbit during the mission ‘Long March 4B | Feng Yun 1C’, on board a Long March 4B space rocket.

The launch took place on May 10, 1999, 1:33 a.m. from Launch Complex 7.

For more information about the launch, click the button.

Launch to space Long March 4B | Feng Yun 1C
Long March 4B | Feng Yun 1C

Agency: N/A

Status: Launch Successful

Launch date: May 10, 1999, 1:33 a.m. UTC

Rocket: Long March 4B

Launch pad: Launch Complex 7

Location: Taiyuan Satellite Launch Center, People's Republic of China

...

Latest news about this satellite

There are no fresh news available about this satellite. Check back as we update our databases every day.


Newsletter sign-up

Weekly statistics, charts and insights to help you stay on top of the space industry.